Niagara Falls, NY

3:42 AM EDT on June 24, 2017 (GMT -0400)
Niagara Falls International

Weather History for KIAG - November, 2011

Change the Weather History Date:

Saturday, November 12, 2011

  Actual Average Record
Temperature  
Mean Temperature 44 °F -  
Max Temperature 52 °F 45 °F 69 °F (2012)
Min Temperature 36 °F 31 °F 15 °F (1997)
Degree Days  
Heating Degree Days 21    
Moisture  
Dew Point 36 °F    
Average Humidity 69    
Maximum Humidity 90    
Minimum Humidity 57    
Precipitation  
Precipitation 0.00 in - - ()
Sea Level Pressure  
Sea Level Pressure 29.89 in    
Wind  
Wind Speed 13 mph (SW)    
Max Wind Speed 26 mph    
Max Gust Speed 32 mph    
Visibility 10 miles    
Events      
Averages and records for this station are not official NWS values.
T = Trace of Precipitation, MM = Missing Value Source: NWS Daily Summary

Daily Weather History Graph

Daily Weather History Graph

Search for Another Location

Airport or City:

Trip Planner

Search our weather history database for the weather conditions in past years. The results will help you decide how hot, cold, wet, or windy it might be!

Date:

Astronomy

Nov. 12, 2011 Rise Set
Actual Time 7:04 AM EST 4:55 PM EST
Civil Twilight 6:33 AM EST 5:25 PM EST
Nautical Twilight 5:59 AM EST 5:59 PM EST
Astronomical Twilight 5:26 AM EST 6:33 PM EST
Moon 6:06 PM EST (11/12) 8:48 AM EST (11/12)
Length of Visible Light 10h 51m
Length of Day
9h 50m
Full, 97% of the Moon is Illuminated
Nov 12
Full
Nov 18
Last Quarter
Nov 25
New
Dec 2
First Quarter
Dec 10
Full

Hourly Weather History & Observations

Time (EST) Temp. Windchill Dew Point Humidity Pressure Visibility Wind Dir Wind Speed Gust Speed Precip Events Conditions
12:53 AM 37.0 °F 31.0 °F 28.0 °F 70% 29.92 in 10.0 mi WSW 8.1 mph - N/A   Mostly Cloudy
1:53 AM 36.0 °F 31.1 °F 28.0 °F 73% 29.92 in 10.0 mi WSW 5.8 mph - N/A   Mostly Cloudy
2:53 AM 41.0 °F 33.5 °F 33.1 °F 73% 29.89 in 10.0 mi SW 13.8 mph 23.0 mph N/A   Clear
3:53 AM 41.0 °F 33.9 °F 33.1 °F 73% 29.87 in 10.0 mi SSW 12.7 mph - N/A   Clear
4:53 AM 39.9 °F 32.1 °F 30.0 °F 68% 29.86 in 10.0 mi SSW 13.8 mph - N/A   Clear
5:53 AM 39.0 °F 31.8 °F 28.9 °F 67% 29.85 in 10.0 mi South 11.5 mph - N/A   Clear
6:53 AM 39.0 °F 32.3 °F 30.0 °F 70% 29.86 in 10.0 mi South 10.4 mph - N/A   Clear
7:02 AM 39.2 °F 33.0 °F 30.2 °F 70% 29.82 in 10.0 mi South 9.2 mph - N/A   Mostly Cloudy
7:53 AM 42.1 °F 34.5 °F 32.0 °F 67% 29.86 in 10.0 mi SW 15.0 mph 20.7 mph N/A   Scattered Clouds
8:53 AM 46.0 °F 38.0 °F 33.1 °F 61% 29.85 in 10.0 mi SW 21.9 mph 28.8 mph N/A   Scattered Clouds
9:53 AM 46.4 °F 38.3 °F 35.6 °F 66% 29.83 in 10.0 mi SW 23.0 mph 32.2 mph N/A   Mostly Cloudy
10:53 AM 48.9 °F - 37.0 °F 64% 29.88 in 10.0 mi SW 20.7 mph - N/A   Mostly Cloudy
11:53 AM 51.1 °F - 39.0 °F 63% 29.89 in 10.0 mi SW 26.5 mph 32.2 mph N/A   Scattered Clouds
12:53 PM 52.0 °F - 39.9 °F 63% 29.89 in 10.0 mi SW 23.0 mph 32.2 mph N/A   Scattered Clouds
1:53 PM 52.0 °F - 41.0 °F 66% 29.91 in 10.0 mi SW 20.7 mph 26.5 mph N/A   Scattered Clouds
2:53 PM 52.0 °F - 39.9 °F 63% 29.91 in 10.0 mi SW 19.6 mph 27.6 mph N/A   Scattered Clouds
3:53 PM 52.0 °F - 39.0 °F 61% 29.91 in 10.0 mi SW 19.6 mph 28.8 mph N/A   Partly Cloudy
4:53 PM 50.0 °F - 37.0 °F 61% 29.92 in 10.0 mi SSW 11.5 mph - N/A   Partly Cloudy
5:53 PM 46.9 °F - 37.9 °F 71% 29.94 in 10.0 mi South 8.1 mph - N/A   Partly Cloudy
6:53 PM 46.0 °F 43.1 °F 39.0 °F 76% 29.94 in 10.0 mi SSW 5.8 mph - N/A   Partly Cloudy
7:53 PM 45.0 °F 41.2 °F 42.1 °F 90% 29.93 in 10.0 mi South 6.9 mph - N/A   Partly Cloudy
8:53 PM 44.1 °F 40.8 °F 41.0 °F 89% 29.93 in 10.0 mi SSW 5.8 mph - N/A   Partly Cloudy
9:53 PM 46.9 °F - 39.0 °F 74% 29.92 in 10.0 mi SW 6.9 mph - N/A   Partly Cloudy
10:53 PM 51.1 °F - 37.0 °F 59% 29.91 in 10.0 mi SSW 11.5 mph - N/A   Mostly Cloudy
11:53 PM 52.0 °F - 37.0 °F 57% 29.91 in 10.0 mi SSW 9.2 mph - N/A   Clear